Flag for Germany Weather past 2 weeks in Tuttlingen, Baden-Württemberg, Germany

Now
50 °F

Partly sunny.


Feels Like: 49 °F
Forecast: 27 / 38 °F
Wind: 5 mph from Southwest

Location: Konstanz

Current Time: Mar 3, 2015 at 5:54:17 PM

Latest Report: Mar 3, 2015 at 5:00 PM


Visibility: 47 mi

Pressure: 30.16 "Hg

Humidity: 45%

Dew point: 30 °F

Location of TuttlingenLocation

Historic Weather in Tuttlingen — Graph

°F

Tuttlingen temperature yesterday

Maximum temperature yesterday: 48 °F (at 7:00 AM)
Minimum temperature yesterday: 38 °F (at 10:00 PM)
Average temperature yesterday: 44 °F

Past Weeks' High & Low Weather Summary

 TemperatureHumidityPressure
High52 °F (Mar 3, 4:00 PM)100% (Feb 20, 4:00 AM)30.77 "Hg (Feb 20, 4:00 AM)
Low26 °F (Feb 20, 8:00 AM)40% (Feb 20, 5:00 PM)29.55 "Hg (Feb 21, 1:00 PM)
Average36 °F84%30.09 "Hg
* Reported Feb 16 5:00 PM — Mar 3 5:00 PM, Tuttlingen, Weather by CustomWeather, © 2015

Note: Actual official high and low records may vary slightly from our data, if they occured in-between our weather recording intervals... More about our weather records

Advertising

Tuttlingen weather history for previous 24 hours

 ConditionsComfort  
Time TempWeatherWind HumidityBarometerVisibility
5:00 PM
Tue, Mar 3
50 °FPartly sunny.5 mph45%30.16 "Hg47 mi
4:00 PM52 °FScattered clouds.2 mph40%30.16 "Hg47 mi
3:00 PM50 °FScattered clouds.2 mph43%30.19 "Hg47 mi
2:00 PM50 °FPassing clouds.2 mph41%30.20 "Hg47 mi
1:00 PM49 °FScattered clouds.2 mph40%30.23 "Hg37 mi
12:00 PM47 °FPartly sunny.3 mph44%30.26 "Hg37 mi
11:00 AM45 °FScattered clouds.3 mph47%30.28 "Hg37 mi
10:00 AM42 °FPartly sunny.3 mph52%30.29 "Hg37 mi
9:00 AM39 °FPartly sunny.2 mph60%30.29 "Hg37 mi
8:00 AM35 °FPartly sunny.3 mph76%30.29 "Hg37 mi
7:00 AM33 °FPassing clouds.2 mph84%30.30 "Hg37 mi
6:00 AM33 °FOvercast.1 mph82%30.29 "Hg37 mi
5:00 AM33 °FClear.1 mph82%30.29 "Hg40 mi
4:00 AM35 °FClear.2 mph76%30.27 "Hg43 mi
3:00 AM36 °FClear.2 mph75%30.27 "Hg43 mi
2:00 AM36 °FClear.3 mph74%30.27 "Hg43 mi
1:00 AM37 °FClear.3 mph76%30.26 "Hg43 mi
12:00 AM38 °FPassing clouds.3 mph67%30.24 "Hg43 mi
11:00 PM
Mon, Mar 2
39 °FPassing clouds.6 mph63%30.21 "Hg43 mi
10:00 PM38 °FPassing clouds.2 mph84%30.17 "Hg43 mi
9:00 PM40 °FPassing clouds.2 mph81%30.11 "Hg34 mi
8:00 PM40 °FLight rain. Overcast.9 mph78%30.06 "Hg10 mi
7:00 PM42 °FPassing clouds.7 mph75%30.00 "Hg37 mi
6:00 PM44 °FThunderstorms. Scattered clouds.7 mph62%29.96 "Hg28 mi
5:00 PM45 °FLight rain. Partly sunny.8 mph70%29.93 "Hg28 mi
Weather by CustomWeather, © 2015

See weather overviewHow to use our weather pages